Time,TemperatureF,DewpointF,PressureIn,WindDirection,WindDirectionDegrees,WindSpeedMPH,WindSpeedGustMPH,Humidity,HourlyPrecipIn,Conditions,Clouds,dailyrainin,SolarRadiationWatts/m^2,SoftwareType,DateUTC
2013-03-09 00:00:00,37.6,28.0,29.95,NW,307,0.0,1.0,68,0.00,,,0.25,0,WeatherCatV1.14B232,2013-03-09 05:00:00,
2013-03-09 00:05:00,37.5,27.9,29.95,NNW,332,0.0,0.0,68,0.00,,,0.00,0,WeatherCatV1.14B232,2013-03-09 05:05:00,
2013-03-09 00:10:00,37.5,27.9,29.95,NW,325,0.0,1.0,68,0.00,,,0.00,0,WeatherCatV1.14B232,2013-03-09 05:10:00,
2013-03-09 00:15:00,37.4,27.8,29.95,NW,309,0.0,0.0,68,0.00,,,0.00,0,WeatherCatV1.14B232,2013-03-09 05:15:00,
2013-03-09 00:20:00,37.3,27.7,29.95,North,355,0.0,1.0,68,0.00,,,0.00,0,WeatherCatV1.14B232,2013-03-09 05:20:00,
2013-03-09 00:25:00,37.1,27.5,29.95,NNW,339,2.0,2.0,68,0.00,,,0.00,0,WeatherCatV1.14B232,2013-03-09 05:25:00,
2013-03-09 00:28:00,37.1,27.5,29.95,North,355,0.0,1.0,68,0.00,,,0.00,0,WeatherCatV1.14B232,2013-03-09 05:28:00,
2013-03-09 00:33:00,37.0,27.4,29.95,NNW,330,0.0,1.0,68,0.00,,,0.00,0,WeatherCatV1.14B232,2013-03-09 05:33:00,
2013-03-09 00:38:00,37.0,27.8,29.95,WNW,292,5.0,5.0,69,0.00,,,0.00,0,WeatherCatV1.14B232,2013-03-09 05:38:00,
2013-03-09 00:43:00,36.9,27.3,29.95,NNW,334,2.0,3.0,68,0.00,,,0.00,0,WeatherCatV1.14B232,2013-03-09 05:43:00,
2013-03-09 00:48:00,36.9,27.7,29.95,NW,321,1.0,2.0,69,0.00,,,0.00,0,WeatherCatV1.14B232,2013-03-09 05:48:00,
2013-03-09 00:53:00,36.8,27.2,29.95,NNW,344,1.0,5.0,68,0.00,,,0.00,0,WeatherCatV1.14B232,2013-03-09 05:53:00,
2013-03-09 00:58:00,36.8,27.6,29.95,NW,310,2.0,5.0,69,0.00,,,0.00,0,WeatherCatV1.14B232,2013-03-09 05:58:00,
2013-03-09 01:03:00,36.7,27.5,29.95,North,355,1.0,2.0,69,0.00,,,0.00,0,WeatherCatV1.14B232,2013-03-09 06:03:00,
2013-03-09 01:08:00,36.6,27.4,29.96,NW,323,2.0,2.0,69,0.00,,,0.00,0,WeatherCatV1.14B232,2013-03-09 06:08:00,
2013-03-09 01:13:00,36.5,27.3,29.95,NNW,336,0.0,2.0,69,0.00,,,0.00,0,WeatherCatV1.14B232,2013-03-09 06:13:00,
2013-03-09 01:18:00,36.4,27.2,29.96,NW,316,1.0,1.0,69,0.00,,,0.00,0,WeatherCatV1.14B232,2013-03-09 06:18:00,
2013-03-09 01:23:00,36.3,27.5,29.96,NW,316,0.0,1.0,70,0.00,,,0.00,0,WeatherCatV1.14B232,2013-03-09 06:23:00,
2013-03-09 01:28:00,36.2,27.4,29.96,West,276,0.0,1.0,70,0.00,,,0.00,0,WeatherCatV1.14B232,2013-03-09 06:28:00,
2013-03-09 01:33:00,36.1,27.3,29.95,NNW,348,0.0,1.0,70,0.00,,,0.00,0,WeatherCatV1.14B232,2013-03-09 06:33:00,
2013-03-09 01:38:00,36.0,27.2,29.95,NNW,336,0.0,2.0,70,0.00,,,0.00,0,WeatherCatV1.14B232,2013-03-09 06:38:00,
2013-03-09 01:43:00,35.8,27.0,29.95,NNW,346,0.0,4.0,70,0.00,,,0.00,0,WeatherCatV1.14B232,2013-03-09 06:43:00,
2013-03-09 01:48:00,35.8,27.0,29.95,North,350,0.0,3.0,70,0.00,,,0.00,0,WeatherCatV1.14B232,2013-03-09 06:48:00,
2013-03-09 01:53:00,35.7,26.9,29.95,North,5,0.0,4.0,70,0.00,,,0.00,0,WeatherCatV1.14B232,2013-03-09 06:53:00,
2013-03-09 01:58:00,35.6,26.8,29.95,NNW,340,1.0,4.0,70,0.00,,,0.00,0,WeatherCatV1.14B232,2013-03-09 06:58:00,
2013-03-09 02:03:00,35.5,27.0,29.95,NNW,340,0.0,0.0,71,0.00,,,0.00,0,WeatherCatV1.14B232,2013-03-09 07:03:00,
2013-03-09 02:08:00,35.3,26.9,29.95,NNW,340,0.0,1.0,71,0.00,,,0.00,0,WeatherCatV1.14B232,2013-03-09 07:08:00,
2013-03-09 02:13:00,35.2,26.8,29.94,NNW,331,0.0,1.0,71,0.00,,,0.00,0,WeatherCatV1.14B232,2013-03-09 07:13:00,
2013-03-09 02:18:00,35.0,26.6,29.94,NNW,331,0.0,1.0,71,0.00,,,0.00,0,WeatherCatV1.14B232,2013-03-09 07:18:00,
2013-03-09 02:23:00,34.9,26.8,29.94,North,5,0.0,0.0,72,0.00,,,0.00,0,WeatherCatV1.14B232,2013-03-09 07:23:00,
2013-03-09 02:28:00,34.7,26.6,29.94,North,5,0.0,0.0,72,0.00,,,0.00,0,WeatherCatV1.14B232,2013-03-09 07:28:00,
2013-03-09 02:33:00,34.6,26.5,29.94,North,5,0.0,0.0,72,0.00,,,0.00,0,WeatherCatV1.14B232,2013-03-09 07:33:00,
2013-03-09 02:38:00,34.4,27.3,29.94,North,5,0.0,0.0,75,0.00,,,0.00,0,WeatherCatV1.14B232,2013-03-09 07:38:00,
2013-03-09 02:43:00,34.2,27.4,29.94,North,5,0.0,0.0,76,0.00,,,0.00,0,WeatherCatV1.14B232,2013-03-09 07:43:00,
2013-03-09 02:48:00,33.9,27.5,29.94,North,5,0.0,0.0,77,0.00,,,0.00,0,WeatherCatV1.14B232,2013-03-09 07:48:00,
2013-03-09 02:53:00,33.6,27.2,29.94,North,5,0.0,0.0,77,0.00,,,0.00,0,WeatherCatV1.14B232,2013-03-09 07:53:00,
2013-03-09 02:58:00,33.3,26.9,29.93,North,5,0.0,0.0,77,0.00,,,0.00,0,WeatherCatV1.14B232,2013-03-09 07:58:00,
2013-03-09 03:03:00,32.9,26.8,29.93,North,5,0.0,0.0,78,0.00,,,0.00,0,WeatherCatV1.14B232,2013-03-09 08:03:00,
2013-03-09 03:08:00,32.5,26.4,29.93,North,5,0.0,0.0,78,0.00,,,0.00,0,WeatherCatV1.14B232,2013-03-09 08:08:00,
2013-03-09 03:13:00,32.2,26.4,29.93,North,5,0.0,0.0,79,0.00,,,0.00,0,WeatherCatV1.14B232,2013-03-09 08:13:00,
2013-03-09 03:18:00,31.9,26.1,29.93,North,5,0.0,0.0,79,0.00,,,0.00,0,WeatherCatV1.14B232,2013-03-09 08:18:00,
2013-03-09 03:23:00,31.6,26.2,29.93,North,5,0.0,0.0,80,0.00,,,0.00,0,WeatherCatV1.14B232,2013-03-09 08:23:00,
2013-03-09 03:28:00,31.3,25.9,29.93,North,5,0.0,0.0,80,0.00,,,0.00,0,WeatherCatV1.14B232,2013-03-09 08:28:00,
2013-03-09 03:33:00,30.9,26.1,29.93,North,5,2.0,2.0,82,0.00,,,0.00,0,WeatherCatV1.14B232,2013-03-09 08:33:00,
2013-03-09 03:38:00,30.6,26.1,29.94,North,5,0.0,2.0,83,0.00,,,0.00,0,WeatherCatV1.14B232,2013-03-09 08:38:00,
2013-03-09 03:43:00,30.4,26.2,29.94,North,5,0.0,0.0,84,0.00,,,0.00,0,WeatherCatV1.14B232,2013-03-09 08:43:00,
2013-03-09 03:48:00,30.3,26.1,29.94,North,5,0.0,0.0,84,0.00,,,0.00,0,WeatherCatV1.14B232,2013-03-09 08:48:00,
2013-03-09 03:53:00,30.2,26.0,29.95,North,5,0.0,0.0,84,0.00,,,0.00,0,WeatherCatV1.14B232,2013-03-09 08:53:00,
2013-03-09 03:58:00,30.1,25.9,29.95,North,5,0.0,0.0,84,0.00,,,0.00,0,WeatherCatV1.14B232,2013-03-09 08:58:00,
2013-03-09 04:03:00,29.9,26.0,29.95,North,5,0.0,0.0,85,0.00,,,0.00,0,WeatherCatV1.14B232,2013-03-09 09:03:00,
2013-03-09 04:08:00,29.8,25.9,29.96,North,5,0.0,0.0,85,0.00,,,0.00,0,WeatherCatV1.14B232,2013-03-09 09:08:00,
2013-03-09 04:13:00,29.6,25.7,29.96,North,5,0.0,0.0,85,0.00,,,0.00,0,WeatherCatV1.14B232,2013-03-09 09:13:00,
2013-03-09 04:18:00,29.5,25.8,29.96,North,5,0.0,0.0,86,0.00,,,0.00,0,WeatherCatV1.14B232,2013-03-09 09:18:00,
2013-03-09 04:23:00,29.3,25.6,29.96,North,5,0.0,0.0,86,0.00,,,0.00,0,WeatherCatV1.14B232,2013-03-09 09:23:00,
2013-03-09 04:28:00,29.1,25.7,29.96,North,5,0.0,0.0,87,0.00,,,0.00,0,WeatherCatV1.14B232,2013-03-09 09:28:00,
2013-03-09 04:33:00,29.0,25.6,29.96,North,5,0.0,1.0,87,0.00,,,0.00,0,WeatherCatV1.14B232,2013-03-09 09:33:00,
2013-03-09 04:38:00,28.8,25.7,29.96,North,5,0.0,0.0,88,0.00,,,0.00,0,WeatherCatV1.14B232,2013-03-09 09:38:00,
2013-03-09 04:43:00,28.6,25.5,29.96,North,5,0.0,1.0,88,0.00,,,0.00,0,WeatherCatV1.14B232,2013-03-09 09:43:00,
2013-03-09 04:48:00,28.4,25.6,29.96,North,5,0.0,0.0,89,0.00,,,0.00,0,WeatherCatV1.14B232,2013-03-09 09:48:00,
2013-03-09 04:53:00,28.3,25.5,29.97,North,5,0.0,0.0,89,0.00,,,0.00,0,WeatherCatV1.14B232,2013-03-09 09:53:00,
2013-03-09 04:58:00,28.1,25.3,29.97,North,5,0.0,0.0,89,0.00,,,0.00,0,WeatherCatV1.14B232,2013-03-09 09:58:00,
2013-03-09 05:03:00,28.0,25.5,29.97,North,5,0.0,0.0,90,0.00,,,0.00,0,WeatherCatV1.14B232,2013-03-09 10:03:00,
2013-03-09 05:08:00,27.9,25.4,29.97,North,5,0.0,0.0,90,0.00,,,0.00,0,WeatherCatV1.14B232,2013-03-09 10:08:00,
2013-03-09 05:13:00,27.9,25.4,29.97,North,5,0.0,0.0,90,0.00,,,0.00,0,WeatherCatV1.14B232,2013-03-09 10:13:00,
2013-03-09 05:18:00,27.7,25.2,29.98,North,5,0.0,0.0,90,0.00,,,0.00,0,WeatherCatV1.14B232,2013-03-09 10:18:00,
2013-03-09 05:23:00,27.6,25.1,29.98,North,5,0.0,0.0,90,0.00,,,0.00,0,WeatherCatV1.14B232,2013-03-09 10:23:00,
2013-03-09 05:28:00,27.5,25.2,29.98,North,5,0.0,1.0,91,0.00,,,0.00,0,WeatherCatV1.14B232,2013-03-09 10:28:00,
2013-03-09 05:33:00,27.4,25.1,29.98,North,5,0.0,1.0,91,0.00,,,0.00,0,WeatherCatV1.14B232,2013-03-09 10:33:00,
2013-03-09 05:38:00,27.3,25.0,29.98,North,5,0.0,0.0,91,0.00,,,0.00,0,WeatherCatV1.14B232,2013-03-09 10:38:00,
2013-03-09 05:43:00,27.2,24.9,29.98,North,5,0.0,0.0,91,0.00,,,0.00,0,WeatherCatV1.14B232,2013-03-09 10:43:00,
2013-03-09 05:48:00,27.1,24.8,29.99,North,5,0.0,0.0,91,0.00,,,0.00,0,WeatherCatV1.14B232,2013-03-09 10:48:00,
2013-03-09 05:53:00,27.0,25.0,29.99,North,5,0.0,0.0,92,0.00,,,0.00,0,WeatherCatV1.14B232,2013-03-09 10:53:00,
2013-03-09 05:58:00,27.0,25.0,29.99,North,5,0.0,0.0,92,0.00,,,0.00,0,WeatherCatV1.14B232,2013-03-09 10:58:00,
2013-03-09 06:03:00,26.9,24.9,29.99,North,5,0.0,0.0,92,0.00,,,0.00,0,WeatherCatV1.14B232,2013-03-09 11:03:00,
2013-03-09 06:08:00,26.8,24.8,30.00,North,5,0.0,0.0,92,0.00,,,0.00,0,WeatherCatV1.14B232,2013-03-09 11:08:00,
2013-03-09 06:13:00,26.7,24.7,30.00,North,5,0.0,0.0,92,0.00,,,0.00,0,WeatherCatV1.14B232,2013-03-09 11:13:00,
2013-03-09 06:18:00,26.7,24.7,30.00,North,5,0.0,0.0,92,0.00,,,0.00,0,WeatherCatV1.14B232,2013-03-09 11:18:00,
2013-03-09 06:23:00,26.6,24.6,30.00,North,5,0.0,0.0,92,0.00,,,0.00,0,WeatherCatV1.14B232,2013-03-09 11:23:00,
2013-03-09 06:28:00,26.6,24.6,30.00,North,5,0.0,0.0,92,0.00,,,0.00,7,WeatherCatV1.14B232,2013-03-09 11:28:00,
2013-03-09 06:33:00,26.6,24.6,30.00,North,5,0.0,0.0,92,0.00,,,0.00,9,WeatherCatV1.14B232,2013-03-09 11:33:00,
2013-03-09 06:38:00,26.6,24.6,30.00,North,5,0.0,0.0,92,0.00,,,0.00,12,WeatherCatV1.14B232,2013-03-09 11:38:00,
2013-03-09 06:43:00,26.7,25.0,30.00,North,5,0.0,0.0,93,0.00,,,0.00,11,WeatherCatV1.14B232,2013-03-09 11:43:00,
2013-03-09 06:48:00,26.7,25.0,30.00,North,5,0.0,1.0,93,0.00,,,0.00,12,WeatherCatV1.14B232,2013-03-09 11:48:00,
2013-03-09 06:53:00,26.7,25.0,30.00,North,5,0.0,0.0,93,0.00,,,0.00,14,WeatherCatV1.14B232,2013-03-09 11:53:00,
2013-03-09 06:58:00,26.7,25.0,30.01,North,5,0.0,0.0,93,0.00,,,0.00,16,WeatherCatV1.14B232,2013-03-09 11:58:00,
2013-03-09 07:03:00,26.7,25.0,30.01,North,5,0.0,0.0,93,0.00,,,0.00,18,WeatherCatV1.14B232,2013-03-09 12:03:00,
2013-03-09 07:08:00,26.7,25.0,30.01,North,5,0.0,0.0,93,0.00,,,0.00,23,WeatherCatV1.14B232,2013-03-09 12:08:00,
2013-03-09 07:13:00,26.8,25.1,30.01,North,5,0.0,0.0,93,0.00,,,0.00,23,WeatherCatV1.14B232,2013-03-09 12:13:00,
2013-03-09 07:18:00,26.9,25.2,30.01,North,5,0.0,0.0,93,0.00,,,0.00,21,WeatherCatV1.14B232,2013-03-09 12:18:00,
2013-03-09 07:23:00,27.1,25.4,30.01,North,5,0.0,0.0,93,0.00,,,0.00,93,WeatherCatV1.14B232,2013-03-09 12:23:00,
2013-03-09 07:28:00,27.3,25.8,30.01,North,5,0.0,0.0,94,0.00,,,0.00,83,WeatherCatV1.14B232,2013-03-09 12:28:00,
2013-03-09 07:33:00,27.6,26.1,30.01,North,5,0.0,0.0,94,0.00,,,0.00,30,WeatherCatV1.14B232,2013-03-09 12:33:00,
2013-03-09 07:38:00,27.9,26.4,30.01,North,0,1.0,1.0,94,0.00,,,0.00,35,WeatherCatV1.14B232,2013-03-09 12:38:00,
2013-03-09 07:43:00,28.5,27.0,30.01,North,349,4.0,4.0,94,0.00,,,0.00,35,WeatherCatV1.14B232,2013-03-09 12:43:00,
2013-03-09 07:48:00,29.6,27.6,30.01,NNE,19,0.0,1.0,92,0.00,,,0.00,40,WeatherCatV1.14B232,2013-03-09 12:48:00,
2013-03-09 07:53:00,30.6,27.5,30.01,NNE,24,0.0,2.0,88,0.00,,,0.00,65,WeatherCatV1.14B232,2013-03-09 12:53:00,
2013-03-09 07:58:00,31.9,27.0,30.01,NE,38,2.0,2.0,82,0.00,,,0.00,74,WeatherCatV1.14B232,2013-03-09 12:58:00,
2013-03-09 08:03:00,32.9,26.8,30.01,North,0,1.0,2.0,78,0.00,,,0.00,65,WeatherCatV1.14B232,2013-03-09 13:03:00,
2013-03-09 08:08:00,34.1,26.7,30.01,NE,53,0.0,4.0,74,0.00,,,0.00,84,WeatherCatV1.14B232,2013-03-09 13:08:00,
2013-03-09 08:13:00,35.0,26.6,30.01,North,0,1.0,6.0,71,0.00,,,0.00,135,WeatherCatV1.14B232,2013-03-09 13:13:00,
2013-03-09 08:18:00,35.7,26.9,30.01,NNE,27,1.0,3.0,70,0.00,,,0.00,102,WeatherCatV1.14B232,2013-03-09 13:18:00,
2013-03-09 08:23:00,36.3,26.4,30.01,NNE,19,2.0,6.0,67,0.00,,,0.00,221,WeatherCatV1.14B232,2013-03-09 13:23:00,
2013-03-09 08:28:00,36.8,26.5,30.01,NNE,32,3.0,3.0,66,0.00,,,0.00,209,WeatherCatV1.14B232,2013-03-09 13:28:00,
2013-03-09 08:33:00,37.3,26.3,30.01,NE,54,1.0,5.0,64,0.00,,,0.00,218,WeatherCatV1.14B232,2013-03-09 13:33:00,
2013-03-09 08:38:00,37.7,26.6,30.01,North,355,5.0,5.0,64,0.00,,,0.00,97,WeatherCatV1.14B232,2013-03-09 13:38:00,
2013-03-09 08:43:00,38.0,26.2,30.01,North,349,1.0,9.0,62,0.00,,,0.00,104,WeatherCatV1.14B232,2013-03-09 13:43:00,
2013-03-09 08:48:00,38.3,26.4,30.01,North,355,1.0,6.0,62,0.00,,,0.00,185,WeatherCatV1.14B232,2013-03-09 13:48:00,
2013-03-09 08:53:00,38.7,26.4,30.02,ENE,71,4.0,4.0,61,0.00,,,0.00,42,WeatherCatV1.14B232,2013-03-09 13:53:00,
2013-03-09 08:58:00,39.0,26.3,30.02,North,0,5.0,7.0,60,0.00,,,0.00,42,WeatherCatV1.14B232,2013-03-09 13:58:00,
2013-03-09 09:03:00,39.3,26.6,30.02,NNW,340,2.0,4.0,60,0.00,,,0.00,44,WeatherCatV1.14B232,2013-03-09 14:03:00,
2013-03-09 09:08:00,39.7,26.1,30.02,North,355,3.0,6.0,58,0.00,,,0.00,76,WeatherCatV1.14B232,2013-03-09 14:08:00,
2013-03-09 09:13:00,40.0,26.8,30.02,NW,317,4.0,4.0,59,0.00,,,0.00,413,WeatherCatV1.14B232,2013-03-09 14:13:00,
2013-03-09 09:18:00,40.4,26.8,30.02,NNE,19,1.0,5.0,58,0.00,,,0.00,461,WeatherCatV1.14B232,2013-03-09 14:18:00,
2013-03-09 09:23:00,40.7,26.7,30.02,NNE,26,2.0,6.0,57,0.00,,,0.00,250,WeatherCatV1.14B232,2013-03-09 14:23:00,
2013-03-09 09:28:00,41.0,26.5,30.02,North,9,1.0,8.0,56,0.00,,,0.00,113,WeatherCatV1.14B232,2013-03-09 14:28:00,
2013-03-09 09:33:00,41.4,26.5,30.02,ENE,61,2.0,5.0,55,0.00,,,0.00,88,WeatherCatV1.14B232,2013-03-09 14:33:00,
2013-03-09 09:38:00,41.7,26.7,30.02,NW,321,4.0,5.0,55,0.00,,,0.00,76,WeatherCatV1.14B232,2013-03-09 14:38:00,
2013-03-09 09:43:00,42.1,26.2,30.02,North,9,0.0,4.0,53,0.00,,,0.00,214,WeatherCatV1.14B232,2013-03-09 14:43:00,
2013-03-09 09:48:00,42.5,26.6,30.02,NNE,17,1.0,6.0,53,0.00,,,0.00,311,WeatherCatV1.14B232,2013-03-09 14:48:00,
2013-03-09 09:53:00,42.9,26.5,30.02,NNE,22,2.0,5.0,52,0.00,,,0.00,227,WeatherCatV1.14B232,2013-03-09 14:53:00,
2013-03-09 09:58:00,43.3,26.4,30.02,NNW,331,2.0,4.0,51,0.00,,,0.00,171,WeatherCatV1.14B232,2013-03-09 14:58:00,
2013-03-09 10:03:00,43.7,26.3,30.02,NNE,26,3.0,7.0,50,0.00,,,0.00,162,WeatherCatV1.14B232,2013-03-09 15:03:00,
2013-03-09 10:08:00,44.2,26.3,30.02,NE,38,2.0,6.0,49,0.00,,,0.00,171,WeatherCatV1.14B232,2013-03-09 15:08:00,
2013-03-09 10:13:00,44.6,26.6,30.02,ENE,62,3.0,4.0,49,0.00,,,0.00,53,WeatherCatV1.14B232,2013-03-09 15:13:00,
2013-03-09 10:18:00,45.0,26.5,30.02,NNW,331,4.0,6.0,48,0.00,,,0.00,134,WeatherCatV1.14B232,2013-03-09 15:18:00,
2013-03-09 10:23:00,45.5,26.5,30.02,NNW,348,1.0,4.0,47,0.00,,,0.00,54,WeatherCatV1.14B232,2013-03-09 15:23:00,
2013-03-09 10:28:00,45.8,26.2,30.02,North,9,0.0,7.0,46,0.00,,,0.00,113,WeatherCatV1.14B232,2013-03-09 15:28:00,
2013-03-09 10:33:00,46.3,26.7,30.01,WNW,302,3.0,4.0,46,0.00,,,0.00,468,WeatherCatV1.14B232,2013-03-09 15:33:00,
2013-03-09 10:38:00,46.7,27.0,30.01,NNW,348,2.0,3.0,46,0.00,,,0.00,399,WeatherCatV1.14B232,2013-03-09 15:38:00,
2013-03-09 10:43:00,47.2,25.9,30.01,NNE,16,2.0,7.0,43,0.00,,,0.00,441,WeatherCatV1.14B232,2013-03-09 15:43:00,
2013-03-09 10:48:00,47.6,25.7,30.01,North,5,4.0,9.0,42,0.00,,,0.00,304,WeatherCatV1.14B232,2013-03-09 15:48:00,
2013-03-09 10:53:00,48.0,25.4,30.01,NW,312,2.0,4.0,41,0.00,,,0.00,329,WeatherCatV1.14B232,2013-03-09 15:53:00,
2013-03-09 10:58:00,48.5,25.9,30.01,NNW,327,3.0,7.0,41,0.00,,,0.00,534,WeatherCatV1.14B232,2013-03-09 15:58:00,
2013-03-09 11:03:00,48.8,25.6,30.00,WNW,294,3.0,8.0,40,0.00,,,0.00,719,WeatherCatV1.14B232,2013-03-09 16:03:00,
2013-03-09 11:08:00,49.1,25.2,30.01,North,355,2.0,6.0,39,0.00,,,0.00,550,WeatherCatV1.14B232,2013-03-09 16:08:00,
2013-03-09 11:13:00,49.7,25.8,30.01,North,355,0.0,3.0,39,0.00,,,0.00,770,WeatherCatV1.14B232,2013-03-09 16:13:00,
2013-03-09 11:18:00,50.3,25.7,30.01,NNW,328,3.0,8.0,38,0.00,,,0.00,773,WeatherCatV1.14B232,2013-03-09 16:18:00,
2013-03-09 11:23:00,50.4,24.5,30.01,NNE,13,7.0,10.0,36,0.00,,,0.00,747,WeatherCatV1.14B232,2013-03-09 16:23:00,
2013-03-09 11:28:00,50.1,24.9,30.01,North,5,4.0,7.0,37,0.00,,,0.00,765,WeatherCatV1.14B232,2013-03-09 16:28:00,
2013-03-09 11:33:00,50.5,25.2,30.01,NNE,26,3.0,8.0,37,0.00,,,0.00,738,WeatherCatV1.14B232,2013-03-09 16:33:00,
2013-03-09 11:38:00,50.5,24.6,30.01,North,355,6.0,8.0,36,0.00,,,0.00,780,WeatherCatV1.14B232,2013-03-09 16:38:00,
2013-03-09 11:43:00,51.0,25.0,30.01,NW,319,2.0,7.0,36,0.00,,,0.00,649,WeatherCatV1.14B232,2013-03-09 16:43:00,
2013-03-09 11:48:00,51.2,25.2,30.01,ENE,74,0.0,9.0,36,0.00,,,0.00,645,WeatherCatV1.14B232,2013-03-09 16:48:00,
2013-03-09 11:53:00,51.6,24.9,30.01,NNE,18,2.0,4.0,35,0.00,,,0.00,789,WeatherCatV1.14B232,2013-03-09 16:53:00,
2013-03-09 11:58:00,51.9,24.4,30.01,North,355,2.0,5.0,34,0.00,,,0.00,795,WeatherCatV1.14B232,2013-03-09 16:58:00,
2013-03-09 12:03:00,51.8,24.3,30.01,NW,311,5.0,5.0,34,0.00,,,0.00,422,WeatherCatV1.14B232,2013-03-09 17:03:00,
2013-03-09 12:08:00,52.0,25.2,30.00,NNW,345,2.0,6.0,35,0.00,,,0.00,424,WeatherCatV1.14B232,2013-03-09 17:08:00,
2013-03-09 12:13:00,52.3,25.5,30.00,WNW,295,4.0,5.0,35,0.00,,,0.00,717,WeatherCatV1.14B232,2013-03-09 17:13:00,
2013-03-09 12:18:00,52.4,24.2,30.00,NE,42,3.0,7.0,33,0.00,,,0.00,793,WeatherCatV1.14B232,2013-03-09 17:18:00,
2013-03-09 12:23:00,52.7,24.4,30.00,North,0,3.0,6.0,33,0.00,,,0.00,791,WeatherCatV1.14B232,2013-03-09 17:23:00,
2013-03-09 12:28:00,53.1,24.0,29.99,NNW,348,4.0,7.0,32,0.00,,,0.00,789,WeatherCatV1.14B232,2013-03-09 17:28:00,
2013-03-09 12:33:00,53.6,25.2,29.99,North,355,0.0,3.0,33,0.00,,,0.00,786,WeatherCatV1.14B232,2013-03-09 17:33:00,
2013-03-09 12:38:00,54.0,25.6,29.99,North,9,3.0,5.0,33,0.00,,,0.00,784,WeatherCatV1.14B232,2013-03-09 17:38:00,
2013-03-09 12:43:00,54.4,22.8,29.98,NE,34,5.0,5.0,29,0.00,,,0.00,777,WeatherCatV1.14B232,2013-03-09 17:43:00,
2013-03-09 12:48:00,54.5,21.2,29.98,NE,42,4.0,9.0,27,0.00,,,0.00,773,WeatherCatV1.14B232,2013-03-09 17:48:00,
2013-03-09 12:53:00,54.4,20.2,29.98,NNE,16,0.0,3.0,26,0.00,,,0.00,775,WeatherCatV1.14B232,2013-03-09 17:53:00,
2013-03-09 12:58:00,54.4,22.0,29.97,NE,51,0.0,5.0,28,0.00,,,0.00,761,WeatherCatV1.14B232,2013-03-09 17:58:00,
2013-03-09 13:03:00,54.4,21.1,29.97,NE,54,5.0,9.0,27,0.00,,,0.00,747,WeatherCatV1.14B232,2013-03-09 18:03:00,
2013-03-09 13:08:00,54.5,22.9,29.97,NNE,21,1.0,4.0,29,0.00,,,0.00,759,WeatherCatV1.14B232,2013-03-09 18:08:00,
2013-03-09 13:13:00,54.7,20.5,29.97,North,355,1.0,4.0,26,0.00,,,0.00,745,WeatherCatV1.14B232,2013-03-09 18:13:00,
2013-03-09 13:18:00,55.1,21.7,29.97,ENE,72,4.0,5.0,27,0.00,,,0.00,742,WeatherCatV1.14B232,2013-03-09 18:18:00,
2013-03-09 13:23:00,55.1,19.9,29.97,NNW,346,3.0,4.0,25,0.00,,,0.00,733,WeatherCatV1.14B232,2013-03-09 18:23:00,
2013-03-09 13:28:00,55.4,22.0,29.97,NW,313,2.0,4.0,27,0.00,,,0.00,722,WeatherCatV1.14B232,2013-03-09 18:28:00,
2013-03-09 13:33:00,56.2,24.4,29.97,NNE,27,3.0,6.0,29,0.00,,,0.00,721,WeatherCatV1.14B232,2013-03-09 18:33:00,
2013-03-09 13:38:00,56.3,20.0,29.97,NNW,338,1.0,4.0,24,0.00,,,0.00,715,WeatherCatV1.14B232,2013-03-09 18:38:00,
2013-03-09 13:43:00,56.5,21.1,29.97,NW,316,4.0,4.0,25,0.00,,,0.00,700,WeatherCatV1.14B232,2013-03-09 18:43:00,
2013-03-09 13:48:00,56.6,20.2,29.97,ENE,59,7.0,7.0,24,0.00,,,0.00,679,WeatherCatV1.14B232,2013-03-09 18:48:00,
2013-03-09 13:53:00,57.1,21.6,29.97,North,0,3.0,5.0,25,0.00,,,0.00,693,WeatherCatV1.14B232,2013-03-09 18:53:00,
2013-03-09 13:58:00,57.4,19.9,29.97,NNE,26,1.0,5.0,23,0.00,,,0.00,670,WeatherCatV1.14B232,2013-03-09 18:58:00,
2013-03-09 14:03:00,57.4,22.8,29.96,North,0,2.0,2.0,26,0.00,,,0.00,668,WeatherCatV1.14B232,2013-03-09 19:03:00,
2013-03-09 14:08:00,57.4,20.9,29.96,North,350,2.0,4.0,24,0.00,,,0.00,633,WeatherCatV1.14B232,2013-03-09 19:08:00,
2013-03-09 14:13:00,57.4,18.9,29.96,West,277,6.0,6.0,22,0.00,,,0.00,650,WeatherCatV1.14B232,2013-03-09 19:13:00,
2013-03-09 14:18:00,57.7,20.2,29.96,NNE,30,4.0,7.0,23,0.00,,,0.00,626,WeatherCatV1.14B232,2013-03-09 19:18:00,
2013-03-09 14:23:00,57.5,20.0,29.96,NNW,348,1.0,4.0,23,0.00,,,0.00,619,WeatherCatV1.14B232,2013-03-09 19:23:00,
2013-03-09 14:28:00,57.8,18.1,29.97,NNW,333,4.0,5.0,21,0.00,,,0.00,621,WeatherCatV1.14B232,2013-03-09 19:28:00,
2013-03-09 14:33:00,57.9,18.2,29.97,WNW,298,4.0,4.0,21,0.00,,,0.00,605,WeatherCatV1.14B232,2013-03-09 19:33:00,
2013-03-09 14:38:00,58.1,19.5,29.96,NW,307,3.0,5.0,22,0.00,,,0.00,577,WeatherCatV1.14B232,2013-03-09 19:38:00,
2013-03-09 14:43:00,58.1,18.4,29.96,NW,304,4.0,5.0,21,0.00,,,0.00,577,WeatherCatV1.14B232,2013-03-09 19:43:00,
2013-03-09 14:48:00,58.2,20.6,29.96,NW,309,2.0,4.0,23,0.00,,,0.00,566,WeatherCatV1.14B232,2013-03-09 19:48:00,
2013-03-09 14:53:00,58.7,22.0,29.96,NE,54,1.0,3.0,24,0.00,,,0.00,550,WeatherCatV1.14B232,2013-03-09 19:53:00,
2013-03-09 14:58:00,58.6,18.8,29.96,NNW,337,1.0,3.0,21,0.00,,,0.00,536,WeatherCatV1.14B232,2013-03-09 19:58:00,
2013-03-09 15:03:00,58.8,15.4,29.97,NNW,327,2.0,5.0,18,0.00,,,0.00,524,WeatherCatV1.14B232,2013-03-09 20:03:00,
2013-03-09 15:08:00,59.0,19.1,29.97,NNE,23,0.0,3.0,21,0.00,,,0.00,436,WeatherCatV1.14B232,2013-03-09 20:08:00,
2013-03-09 15:13:00,59.3,17.1,29.97,North,355,2.0,3.0,19,0.00,,,0.00,62,WeatherCatV1.14B232,2013-03-09 20:13:00,
2013-03-09 15:18:00,59.1,20.3,29.97,North,0,0.0,4.0,22,0.00,,,0.00,63,WeatherCatV1.14B232,2013-03-09 20:18:00,
2013-03-09 15:23:00,59.1,14.3,29.97,ENE,78,5.0,9.0,17,0.00,,,0.00,62,WeatherCatV1.14B232,2013-03-09 20:23:00,
2013-03-09 15:28:00,59.0,11.4,29.97,NW,308,0.0,4.0,15,0.00,,,0.00,58,WeatherCatV1.14B232,2013-03-09 20:28:00,
2013-03-09 15:33:00,59.1,10.0,29.97,NNE,12,1.0,5.0,14,0.00,,,0.00,114,WeatherCatV1.14B232,2013-03-09 20:33:00,
2013-03-09 15:38:00,59.0,11.4,29.97,NNE,19,4.0,7.0,15,0.00,,,0.00,348,WeatherCatV1.14B232,2013-03-09 20:38:00,
2013-03-09 15:43:00,58.9,12.8,29.97,NE,37,3.0,6.0,16,0.00,,,0.00,399,WeatherCatV1.14B232,2013-03-09 20:43:00,
2013-03-09 15:48:00,59.1,13.0,29.97,NNE,24,2.0,3.0,16,0.00,,,0.00,385,WeatherCatV1.14B232,2013-03-09 20:48:00,
2013-03-09 15:53:00,59.2,11.6,29.97,ENE,71,3.0,3.0,15,0.00,,,0.00,257,WeatherCatV1.14B232,2013-03-09 20:53:00,
2013-03-09 15:58:00,59.0,14.3,29.97,NNE,30,2.0,8.0,17,0.00,,,0.00,162,WeatherCatV1.14B232,2013-03-09 20:58:00,
2013-03-09 16:03:00,59.1,15.7,29.96,ENE,68,1.0,4.0,18,0.00,,,0.00,74,WeatherCatV1.14B232,2013-03-09 21:03:00,
2013-03-09 16:08:00,59.2,15.7,29.97,ENE,57,2.0,5.0,18,0.00,,,0.00,315,WeatherCatV1.14B232,2013-03-09 21:08:00,
2013-03-09 16:13:00,59.1,14.3,29.97,ENE,65,2.0,5.0,17,0.00,,,0.00,51,WeatherCatV1.14B232,2013-03-09 21:13:00,
2013-03-09 16:18:00,59.1,15.7,29.97,ENE,59,4.0,6.0,18,0.00,,,0.00,49,WeatherCatV1.14B232,2013-03-09 21:18:00,
2013-03-09 16:23:00,58.9,12.8,29.97,ENE,69,2.0,4.0,16,0.00,,,0.00,258,WeatherCatV1.14B232,2013-03-09 21:23:00,
2013-03-09 16:28:00,58.7,12.6,29.97,East,79,2.0,8.0,16,0.00,,,0.00,211,WeatherCatV1.14B232,2013-03-09 21:28:00,
2013-03-09 16:33:00,58.6,11.1,29.97,NE,39,3.0,5.0,15,0.00,,,0.00,132,WeatherCatV1.14B232,2013-03-09 21:33:00,
2013-03-09 16:38:00,58.4,12.4,29.97,NNE,23,1.0,4.0,16,0.00,,,0.00,46,WeatherCatV1.14B232,2013-03-09 21:38:00,
2013-03-09 16:43:00,58.3,15.0,29.98,NE,46,2.0,2.0,18,0.00,,,0.00,105,WeatherCatV1.14B232,2013-03-09 21:43:00,
2013-03-09 16:48:00,58.1,9.2,29.98,ENE,62,4.0,4.0,14,0.00,,,0.00,84,WeatherCatV1.14B232,2013-03-09 21:48:00,
2013-03-09 16:53:00,57.9,13.4,29.98,NNE,26,1.0,5.0,17,0.00,,,0.00,56,WeatherCatV1.14B232,2013-03-09 21:53:00,
2013-03-09 16:58:00,57.8,10.5,29.98,ENE,61,1.0,2.0,15,0.00,,,0.00,40,WeatherCatV1.14B232,2013-03-09 21:58:00,
2013-03-09 17:03:00,57.7,13.2,29.98,ENE,71,2.0,2.0,17,0.00,,,0.00,47,WeatherCatV1.14B232,2013-03-09 22:03:00,
2013-03-09 17:08:00,57.5,11.7,29.98,ENE,68,3.0,5.0,16,0.00,,,0.00,42,WeatherCatV1.14B232,2013-03-09 22:08:00,
2013-03-09 17:13:00,57.2,10.0,29.98,North,5,3.0,5.0,15,0.00,,,0.00,35,WeatherCatV1.14B232,2013-03-09 22:13:00,
2013-03-09 17:18:00,57.0,9.8,29.99,ENE,67,2.0,5.0,15,0.00,,,0.00,30,WeatherCatV1.14B232,2013-03-09 22:18:00,
2013-03-09 17:23:00,56.8,11.1,29.99,ENE,63,2.0,3.0,16,0.00,,,0.00,26,WeatherCatV1.14B232,2013-03-09 22:23:00,
2013-03-09 17:28:00,56.6,10.9,29.99,ENE,63,1.0,4.0,16,0.00,,,0.00,23,WeatherCatV1.14B232,2013-03-09 22:28:00,
2013-03-09 17:33:00,56.4,9.3,29.99,ENE,64,2.0,2.0,15,0.00,,,0.00,19,WeatherCatV1.14B232,2013-03-09 22:33:00,
2013-03-09 17:38:00,56.1,9.1,29.99,ENE,62,5.0,5.0,15,0.00,,,0.00,16,WeatherCatV1.14B232,2013-03-09 22:38:00,
2013-03-09 17:43:00,55.9,11.7,30.00,ENE,64,0.0,0.0,17,0.00,,,0.00,11,WeatherCatV1.14B232,2013-03-09 22:43:00,
2013-03-09 17:48:00,55.6,12.8,30.00,ENE,65,0.0,2.0,18,0.00,,,0.00,9,WeatherCatV1.14B232,2013-03-09 22:48:00,
2013-03-09 17:53:00,55.2,13.7,30.00,ENE,65,0.0,0.0,19,0.00,,,0.00,5,WeatherCatV1.14B232,2013-03-09 22:53:00,
2013-03-09 17:58:00,54.6,13.2,30.00,ENE,65,0.0,1.0,19,0.00,,,0.00,0,WeatherCatV1.14B232,2013-03-09 22:58:00,
2013-03-09 18:03:00,54.3,11.7,30.00,ENE,65,0.0,3.0,18,0.00,,,0.00,0,WeatherCatV1.14B232,2013-03-09 23:03:00,
2013-03-09 18:08:00,54.1,13.9,30.00,ENE,65,0.0,1.0,20,0.00,,,0.00,0,WeatherCatV1.14B232,2013-03-09 23:08:00,
2013-03-09 18:13:00,53.7,13.6,30.00,ENE,65,0.0,0.0,20,0.00,,,0.00,0,WeatherCatV1.14B232,2013-03-09 23:13:00,
2013-03-09 18:18:00,53.1,14.2,30.00,ENE,65,0.0,0.0,21,0.00,,,0.00,0,WeatherCatV1.14B232,2013-03-09 23:18:00,
2013-03-09 18:23:00,52.3,14.6,30.01,ENE,65,0.0,0.0,22,0.00,,,0.00,0,WeatherCatV1.14B232,2013-03-09 23:23:00,
2013-03-09 18:28:00,51.7,16.1,30.01,ENE,65,0.0,1.0,24,0.00,,,0.00,0,WeatherCatV1.14B232,2013-03-09 23:28:00,
2013-03-09 18:33:00,51.5,14.9,30.01,ENE,65,0.0,1.0,23,0.00,,,0.00,0,WeatherCatV1.14B232,2013-03-09 23:33:00,
2013-03-09 18:38:00,51.2,18.4,30.01,ENE,65,0.0,0.0,27,0.00,,,0.00,0,WeatherCatV1.14B232,2013-03-09 23:38:00,
2013-03-09 18:43:00,50.3,22.3,30.01,ENE,65,0.0,0.0,33,0.00,,,0.00,0,WeatherCatV1.14B232,2013-03-09 23:43:00,
2013-03-09 18:48:00,49.8,21.9,30.01,ENE,65,0.0,0.0,33,0.00,,,0.00,0,WeatherCatV1.14B232,2013-03-09 23:48:00,
2013-03-09 18:53:00,48.6,22.2,30.01,ENE,65,0.0,0.0,35,0.00,,,0.00,0,WeatherCatV1.14B232,2013-03-09 23:53:00,
2013-03-09 18:58:00,47.5,21.9,30.01,ENE,65,0.0,0.0,36,0.00,,,0.00,0,WeatherCatV1.14B232,2013-03-09 23:58:00,
2013-03-09 19:03:00,46.9,22.0,30.02,ENE,65,0.0,0.0,37,0.00,,,0.00,0,WeatherCatV1.14B232,2013-03-10 00:03:00,
2013-03-09 19:08:00,46.5,22.9,30.02,ENE,65,0.0,0.0,39,0.00,,,0.00,0,WeatherCatV1.14B232,2013-03-10 00:08:00,
2013-03-09 19:13:00,46.1,22.5,30.01,ENE,65,0.0,0.0,39,0.00,,,0.00,0,WeatherCatV1.14B232,2013-03-10 00:13:00,
2013-03-09 19:18:00,45.5,23.2,30.01,ENE,65,0.0,0.0,41,0.00,,,0.00,0,WeatherCatV1.14B232,2013-03-10 00:18:00,
2013-03-09 19:23:00,44.4,23.3,30.01,ENE,65,0.0,0.0,43,0.00,,,0.00,0,WeatherCatV1.14B232,2013-03-10 00:23:00,
2013-03-09 19:28:00,43.8,24.4,30.02,ENE,65,0.0,0.0,46,0.00,,,0.00,0,WeatherCatV1.14B232,2013-03-10 00:28:00,
2013-03-09 19:33:00,43.6,24.2,30.01,ENE,65,0.0,0.0,46,0.00,,,0.00,0,WeatherCatV1.14B232,2013-03-10 00:33:00,
2013-03-09 19:38:00,43.5,25.1,30.01,ENE,65,0.0,0.0,48,0.00,,,0.00,0,WeatherCatV1.14B232,2013-03-10 00:38:00,
2013-03-09 19:43:00,43.3,25.4,30.01,ENE,65,0.0,0.0,49,0.00,,,0.00,0,WeatherCatV1.14B232,2013-03-10 00:43:00,
2013-03-09 19:48:00,42.9,27.4,30.02,ENE,65,0.0,0.0,54,0.00,,,0.00,0,WeatherCatV1.14B232,2013-03-10 00:48:00,
2013-03-09 19:53:00,42.5,27.5,30.02,ENE,65,0.0,0.0,55,0.00,,,0.00,0,WeatherCatV1.14B232,2013-03-10 00:53:00,
2013-03-09 19:58:00,42.3,27.7,30.02,ENE,65,0.0,0.0,56,0.00,,,0.00,0,WeatherCatV1.14B232,2013-03-10 00:58:00,
2013-03-09 20:03:00,42.0,27.5,30.02,ENE,65,0.0,0.0,56,0.00,,,0.00,0,WeatherCatV1.14B232,2013-03-10 01:03:00,
2013-03-09 20:08:00,41.6,26.6,30.03,ENE,65,0.0,0.0,55,0.00,,,0.00,0,WeatherCatV1.14B232,2013-03-10 01:08:00,
2013-03-09 20:13:00,41.4,26.9,30.03,ENE,65,0.0,0.0,56,0.00,,,0.00,0,WeatherCatV1.14B232,2013-03-10 01:13:00,
2013-03-09 20:18:00,41.1,26.6,30.03,ENE,65,0.0,0.0,56,0.00,,,0.00,0,WeatherCatV1.14B232,2013-03-10 01:18:00,
2013-03-09 20:23:00,40.8,25.0,30.03,ENE,65,0.0,0.0,53,0.00,,,0.00,0,WeatherCatV1.14B232,2013-03-10 01:23:00,
2013-03-09 20:28:00,40.6,23.9,30.03,ENE,65,0.0,0.0,51,0.00,,,0.00,0,WeatherCatV1.14B232,2013-03-10 01:28:00,
2013-03-09 20:33:00,40.3,25.4,30.03,ENE,65,0.0,0.0,55,0.00,,,0.00,0,WeatherCatV1.14B232,2013-03-10 01:33:00,
2013-03-09 20:38:00,40.0,25.6,30.03,ENE,65,0.0,0.0,56,0.00,,,0.00,0,WeatherCatV1.14B232,2013-03-10 01:38:00,
2013-03-09 20:43:00,39.7,25.7,30.03,ENE,65,0.0,0.0,57,0.00,,,0.00,0,WeatherCatV1.14B232,2013-03-10 01:43:00,
2013-03-09 20:48:00,39.4,24.6,30.03,ENE,65,0.0,0.0,55,0.00,,,0.00,0,WeatherCatV1.14B232,2013-03-10 01:48:00,
2013-03-09 20:53:00,39.2,25.7,30.03,ENE,65,0.0,0.0,58,0.00,,,0.00,0,WeatherCatV1.14B232,2013-03-10 01:53:00,
2013-03-09 20:58:00,39.0,25.1,30.03,ENE,65,0.0,0.0,57,0.00,,,0.00,0,WeatherCatV1.14B232,2013-03-10 01:58:00,
2013-03-09 21:03:00,38.7,24.4,30.03,ENE,65,0.0,0.0,56,0.00,,,0.00,0,WeatherCatV1.14B232,2013-03-10 02:03:00,
2013-03-09 21:08:00,38.3,24.0,30.03,ENE,65,0.0,0.0,56,0.00,,,0.00,0,WeatherCatV1.14B232,2013-03-10 02:08:00,
2013-03-09 21:13:00,38.1,25.1,30.03,ENE,65,0.0,0.0,59,0.00,,,0.00,0,WeatherCatV1.14B232,2013-03-10 02:13:00,
2013-03-09 21:18:00,37.9,25.3,30.03,ENE,65,0.0,0.0,60,0.00,,,0.00,0,WeatherCatV1.14B232,2013-03-10 02:18:00,
2013-03-09 21:23:00,37.5,26.1,30.03,ENE,65,0.0,0.0,63,0.00,,,0.00,0,WeatherCatV1.14B232,2013-03-10 02:23:00,
2013-03-09 21:28:00,37.3,26.3,30.03,ENE,65,0.0,0.0,64,0.00,,,0.00,0,WeatherCatV1.14B232,2013-03-10 02:28:00,
2013-03-09 21:33:00,37.0,26.0,30.04,ENE,65,0.0,0.0,64,0.00,,,0.00,0,WeatherCatV1.14B232,2013-03-10 02:33:00,
2013-03-09 21:38:00,36.8,25.0,30.04,ENE,65,0.0,0.0,62,0.00,,,0.00,0,WeatherCatV1.14B232,2013-03-10 02:38:00,
2013-03-09 21:43:00,36.5,24.3,30.04,ENE,65,0.0,0.0,61,0.00,,,0.00,0,WeatherCatV1.14B232,2013-03-10 02:43:00,
2013-03-09 21:48:00,36.2,23.7,30.05,ENE,65,0.0,0.0,60,0.00,,,0.00,0,WeatherCatV1.14B232,2013-03-10 02:48:00,
2013-03-09 21:53:00,36.1,24.0,30.05,ENE,65,0.0,0.0,61,0.00,,,0.00,0,WeatherCatV1.14B232,2013-03-10 02:53:00,
2013-03-09 21:58:00,35.9,23.8,30.05,ENE,65,0.0,0.0,61,0.00,,,0.00,0,WeatherCatV1.14B232,2013-03-10 02:58:00,
2013-03-09 22:03:00,35.6,23.9,30.05,ENE,65,0.0,0.0,62,0.00,,,0.00,0,WeatherCatV1.14B232,2013-03-10 03:03:00,
2013-03-09 22:08:00,35.3,23.6,30.06,ENE,65,0.0,0.0,62,0.00,,,0.00,0,WeatherCatV1.14B232,2013-03-10 03:08:00,
2013-03-09 22:13:00,35.1,23.0,30.06,ENE,65,0.0,0.0,61,0.00,,,0.00,0,WeatherCatV1.14B232,2013-03-10 03:13:00,
2013-03-09 22:18:00,34.9,23.6,30.06,ENE,65,0.0,0.0,63,0.00,,,0.00,0,WeatherCatV1.14B232,2013-03-10 03:18:00,
2013-03-09 22:23:00,34.7,23.8,30.05,ENE,65,0.0,0.0,64,0.00,,,0.00,0,WeatherCatV1.14B232,2013-03-10 03:23:00,
2013-03-09 22:28:00,34.4,23.5,30.05,ENE,65,0.0,0.0,64,0.00,,,0.00,0,WeatherCatV1.14B232,2013-03-10 03:28:00,
2013-03-09 22:33:00,34.2,22.9,30.05,ENE,65,0.0,0.0,63,0.00,,,0.00,0,WeatherCatV1.14B232,2013-03-10 03:33:00,
2013-03-09 22:38:00,34.0,23.1,30.05,ENE,65,0.0,0.0,64,0.00,,,0.00,0,WeatherCatV1.14B232,2013-03-10 03:38:00,
2013-03-09 22:43:00,33.8,23.3,30.05,ENE,65,0.0,0.0,65,0.00,,,0.00,0,WeatherCatV1.14B232,2013-03-10 03:43:00,
2013-03-09 22:48:00,33.6,23.5,30.05,ENE,65,0.0,0.0,66,0.00,,,0.00,0,WeatherCatV1.14B232,2013-03-10 03:48:00,
2013-03-09 22:53:00,33.4,23.6,30.05,ENE,65,0.0,0.0,67,0.00,,,0.00,0,WeatherCatV1.14B232,2013-03-10 03:53:00,
2013-03-09 22:58:00,33.2,24.1,30.05,ENE,65,0.0,0.0,69,0.00,,,0.00,0,WeatherCatV1.14B232,2013-03-10 03:58:00,
2013-03-09 23:03:00,32.9,23.5,30.05,ENE,65,0.0,0.0,68,0.00,,,0.00,0,WeatherCatV1.14B232,2013-03-10 04:03:00,
2013-03-09 23:08:00,32.7,23.0,30.05,ENE,65,0.0,0.0,67,0.00,,,0.00,0,WeatherCatV1.14B232,2013-03-10 04:08:00,
2013-03-09 23:13:00,32.5,22.8,30.06,ENE,65,0.0,0.0,67,0.00,,,0.00,0,WeatherCatV1.14B232,2013-03-10 04:13:00,
2013-03-09 23:18:00,32.2,22.5,30.06,ENE,65,0.0,0.0,67,0.00,,,0.00,0,WeatherCatV1.14B232,2013-03-10 04:18:00,
2013-03-09 23:23:00,32.1,22.0,30.06,ENE,65,0.0,0.0,66,0.00,,,0.00,0,WeatherCatV1.14B232,2013-03-10 04:23:00,
2013-03-09 23:28:00,31.9,21.9,30.06,ENE,65,0.0,0.0,66,0.00,,,0.00,0,WeatherCatV1.14B232,2013-03-10 04:28:00,
2013-03-09 23:33:00,31.8,22.8,30.06,ENE,65,0.0,0.0,69,0.00,,,0.00,0,WeatherCatV1.14B232,2013-03-10 04:33:00,
2013-03-09 23:38:00,31.7,23.1,30.07,ENE,65,0.0,0.0,70,0.00,,,0.00,0,WeatherCatV1.14B232,2013-03-10 04:38:00,
2013-03-09 23:43:00,31.6,23.6,30.07,ENE,65,0.0,0.0,72,0.00,,,0.00,0,WeatherCatV1.14B232,2013-03-10 04:43:00,
2013-03-09 23:48:00,31.4,23.8,30.07,ENE,65,0.0,0.0,73,0.00,,,0.00,0,WeatherCatV1.14B232,2013-03-10 04:48:00,
2013-03-09 23:53:00,31.2,24.2,30.07,ENE,65,0.0,0.0,75,0.00,,,0.00,0,WeatherCatV1.14B232,2013-03-10 04:53:00,
2013-03-09 23:58:00,31.1,24.4,30.07,ENE,65,0.0,0.0,76,0.00,,,0.00,0,WeatherCatV1.14B232,2013-03-10 04:58:00,